Вернуться в каталог

STARLINK-32443

АктивенСвязьVLEO
NORAD 61672·PAYLOAD·🇺🇸 United States

Запущен Oct 26, 2024 с Cape Canaveral Space Force Station

Loading…

Ближайшие Пролёты (ближайшие 24 часа)

TLE

СвежийSource: CelesTrak SupGP

Эпоха: Sep 15, 2026, 03:06 UTC

1 61672C 24193M   26258.12965278  .00008215  00000+0  26409-3 0  2581
2 61672  53.1575 290.0544 0001195  96.7093 318.5936 15.31707800    12

Отслеживайте STARLINK-32443 в реальном времени с AllMySat

Download on the App Store